Vorticity
18 18 17 10 9 14 14 12 13 16 17 14 11 10 11 13 15 17 14 9 8 8 8 6 4 4 6 4 -2 9 27 17 4 8 15 19 15 8 12 12 6 4
20 18 17 12 9 11 13 14 11 12 16 17 14 11 10 11 13 17 18 13 8 8 8 7 4 5 5 4 1 1 11 16 10 5 10 23 22 7 5 10 8 6
19 17 16 12 11 11 12 13 12 11 13 16 19 15 10 9 10 14 18 18 14 9 7 6 5 6 5 7 6 -4 -4 4 7 9 11 14 18 13 5 10 14 9
15 14 14 13 13 13 12 12 12 12 11 13 18 20 17 13 10 11 14 18 20 15 10 6 5 7 5 7 7 -1 -1 1 -2 5 10 11 20 21 14 15 15 7
11 12 14 15 17 19 20 18 16 14 12 10 13 17 20 18 15 14 13 16 20 21 18 11 5 6 5 4 4 2 3 3 2 4 3 9 22 22 15 15 11 8
9 11 12 13 14 16 19 20 19 18 16 13 12 12 14 16 17 16 14 14 16 19 21 18 10 6 7 5 4 3 2 0 5 8 1 6 17 15 14 14 9 9
8 9 10 9 8 7 9 10 11 13 13 13 12 10 10 11 12 14 14 14 14 15 18 20 17 9 7 10 9 8 7 1 0 4 7 12 12 6 9 13 12 13
10 10 9 8 7 6 5 5 5 6 7 8 9 9 9 8 7 9 10 11 14 16 16 17 18 13 7 9 11 8 6 2 -2 -2 1 7 7 5 8 9 12 15
12 11 10 9 8 7 6 5 5 5 6 7 8 9 10 10 11 11 11 13 14 18 20 17 16 14 13 16 19 17 16 14 9 4 -1 -3 -1 5 10 8 10 14
10 9 9 8 7 6 5 4 4 4 5 5 6 8 10 12 15 17 18 18 16 15 19 21 18 14 12 10 8 10 18 22 18 14 8 -1 -6 -0 9 7 5 12
7 6 6 5 6 6 6 6 6 6 6 7 8 11 12 11 12 14 15 16 16 14 14 16 14 13 14 12 2 -5 -0 6 10 13 13 5 -4 -5 5 8 1 4
10 9 8 8 8 8 8 9 9 9 9 11 13 14 13 12 12 14 13 12 15 18 19 17 13 11 15 16 12 7 2 -0 4 11 12 12 13 5 0 6 9 4
16 15 14 13 12 11 11 10 10 11 13 15 15 14 14 13 12 12 13 15 17 19 24 26 21 16 13 9 8 12 10 3 3 6 0 -2 11 19 9 4 13 9
17 18 17 16 15 13 12 11 11 13 15 16 16 15 15 14 13 10 11 16 22 25 27 30 29 23 17 14 9 8 10 8 7 9 5 -8 -7 9 13 6 13 13
15 16 17 18 17 16 14 12 12 13 14 14 14 14 13 12 12 10 9 13 22 30 30 31 36 33 24 20 18 12 11 12 11 9 10 7 -0 2 5 2 12 19
14 14 15 16 16 17 17 15 13 12 11 10 10 10 9 9 9 8 8 11 20 32 30 23 29 35 31 26 24 21 16 14 17 15 11 12 12 11 7 -2 -1 9
12 13 14 14 14 15 16 16 15 13 12 11 9 8 8 8 8 7 7 9 16 28 30 21 18 23 27 27 26 26 22 16 16 18 15 12 11 14 16 7 -2 -3
9 10 11 12 12 13 13 14 14 14 13 12 11 10 10 8 9 8 7 9 13 21 27 25 21 17 17 21 23 24 25 21 18 18 17 14 10 11 16 16 12 5
8 8 9 10 10 11 11 11 13 13 13 13 12 12 12 11 11 10 9 10 11 15 19 21 23 22 18 18 19 20 21 20 21 23 23 21 15 12 14 16 18 15
8 8 8 9 8 9 8 9 10 10 11 11 11 12 12 12 12 12 12 13 13 14 16 16 18 20 21 21 20 20 21 19 19 20 23 25 21 16 15 15 17 17
7 7 7 7 8 8 8 8 8 8 8 9 9 10 10 11 12 12 13 15 15 15 16 17 17 17 19 21 21 20 20 20 18 16 17 22 24 21 17 14 16 17
6 6 6 6 6 7 7 7 7 7 7 7 7 8 8 8 9 10 11 13 15 16 16 17 18 18 17 18 19 20 22 22 22 18 13 13 16 20 21 18 16 14
8 7 6 6 6 6 7 7 7 8 8 8 8 8 8 8 7 8 8 9 10 12 14 15 16 18 18 17 16 16 17 19 22 24 21 16 12 11 15 17 18 17
9 8 8 8 8 8 8 8 9 9 9 9 9 9 9 9 9 8 8 9 9 9 9 11 13 14 15 17 18 17 16 15 16 18 21 23 20 16 13 12 12 13
10 10 10 10 10 10 10 10 10 10 10 10 10 10 10 9 9 9 9 9 9 9 9 9 9 10 11 12 14 16 17 17 17 15 15 16 18 19 19 18 16 14
11 11 11 11 11 10 10 10 10 9 10 10 9 9 9 9 9 9 10 10 9 9 10 9 9 9 10 10 10 11 12 14 15 17 17 16 15 14 15 15 16 17
Height
5741 5742 5742 5743 5743 5743 5743 5743 5743 5744 5745 5747 5749 5750 5751 5753 5755 5757 5759 5760 5762 5764 5765 5766 5767 5769 5772 5774 5776 5776 5776 5777 5777 5778 5779 5780 5782 5784 5786 5787 5788 5789
5738 5738 5739 5739 5740 5740 5740 5740 5740 5741 5741 5743 5744 5746 5748 5749 5751 5752 5754 5756 5758 5759 5761 5762 5763 5766 5768 5770 5771 5772 5772 5772 5773 5773 5773 5775 5778 5780 5782 5782 5783 5785
5735 5735 5736 5736 5736 5737 5737 5737 5737 5738 5738 5739 5740 5742 5744 5745 5747 5748 5750 5752 5754 5756 5757 5758 5759 5761 5764 5766 5767 5767 5768 5769 5769 5769 5769 5771 5773 5775 5777 5777 5779 5781
5733 5733 5733 5734 5734 5734 5734 5734 5734 5735 5735 5736 5737 5738 5740 5742 5743 5744 5746 5748 5750 5752 5753 5754 5756 5757 5759 5762 5762 5763 5764 5765 5765 5765 5766 5767 5768 5770 5772 5773 5774 5776
5730 5731 5731 5731 5731 5731 5731 5731 5732 5732 5733 5733 5734 5735 5736 5738 5739 5741 5742 5744 5746 5748 5749 5750 5751 5753 5755 5757 5758 5760 5761 5761 5762 5763 5763 5764 5764 5765 5768 5769 5770 5772
5728 5728 5728 5728 5728 5729 5729 5729 5730 5730 5731 5731 5731 5732 5733 5734 5736 5737 5738 5739 5741 5743 5745 5745 5747 5749 5751 5753 5754 5756 5758 5759 5760 5760 5760 5761 5761 5762 5763 5764 5766 5768
5725 5725 5726 5726 5726 5727 5727 5727 5728 5728 5729 5729 5729 5730 5730 5731 5732 5733 5734 5736 5737 5739 5741 5742 5743 5745 5747 5750 5751 5753 5754 5755 5756 5755 5755 5756 5756 5758 5759 5760 5761 5763
5724 5724 5724 5724 5724 5725 5725 5725 5726 5726 5726 5727 5727 5728 5728 5729 5729 5730 5732 5733 5734 5735 5737 5739 5740 5741 5742 5745 5747 5748 5749 5749 5749 5749 5749 5749 5750 5752 5753 5754 5756 5758
5722 5722 5722 5722 5722 5722 5723 5723 5723 5723 5724 5724 5725 5725 5726 5726 5726 5727 5729 5729 5730 5731 5732 5733 5735 5735 5735 5738 5741 5742 5742 5742 5742 5743 5743 5743 5744 5744 5745 5747 5749 5751
5720 5720 5719 5719 5720 5720 5720 5720 5720 5721 5721 5721 5722 5722 5722 5722 5722 5722 5723 5723 5723 5723 5724 5725 5726 5727 5728 5730 5732 5733 5733 5734 5734 5735 5735 5737 5739 5739 5740 5742 5744 5746
5718 5717 5717 5717 5717 5717 5717 5717 5717 5718 5718 5718 5718 5718 5718 5718 5718 5717 5717 5717 5717 5717 5718 5718 5719 5720 5722 5724 5724 5725 5727 5727 5727 5728 5730 5732 5734 5734 5735 5737 5740 5743
5715 5715 5715 5715 5714 5714 5714 5714 5714 5715 5715 5715 5715 5714 5714 5714 5714 5713 5713 5712 5712 5712 5712 5712 5713 5714 5716 5717 5717 5720 5722 5722 5722 5723 5726 5728 5729 5730 5730 5732 5735 5737
5713 5713 5712 5712 5712 5711 5711 5711 5711 5711 5711 5711 5711 5711 5710 5710 5710 5709 5708 5707 5706 5706 5705 5705 5706 5707 5709 5710 5711 5713 5715 5716 5716 5718 5720 5721 5722 5723 5724 5727 5729 5731
5711 5711 5710 5710 5710 5709 5709 5709 5708 5708 5708 5707 5707 5707 5706 5706 5705 5705 5703 5702 5701 5700 5699 5699 5699 5700 5701 5703 5705 5706 5708 5709 5710 5712 5713 5713 5713 5715 5718 5721 5724 5726
5710 5709 5708 5708 5707 5707 5707 5706 5706 5705 5704 5704 5703 5702 5702 5701 5701 5700 5699 5698 5696 5694 5693 5693 5693 5693 5694 5696 5697 5699 5701 5703 5704 5706 5707 5708 5709 5711 5713 5715 5718 5720
5708 5708 5707 5706 5705 5705 5704 5704 5703 5703 5702 5701 5700 5699 5698 5697 5697 5696 5695 5693 5691 5690 5688 5687 5687 5687 5688 5689 5690 5692 5694 5696 5698 5700 5701 5702 5703 5705 5707 5709 5711 5713
5707 5706 5705 5705 5704 5703 5702 5702 5701 5700 5699 5699 5698 5696 5695 5694 5693 5692 5691 5690 5688 5686 5684 5684 5683 5683 5683 5684 5685 5686 5688 5689 5691 5693 5694 5696 5697 5699 5701 5702 5704 5706
5706 5705 5704 5703 5702 5701 5701 5700 5699 5698 5697 5696 5695 5694 5693 5692 5691 5690 5689 5687 5686 5684 5682 5681 5681 5680 5680 5680 5681 5681 5683 5684 5685 5687 5689 5690 5692 5693 5695 5696 5698 5699
5704 5703 5702 5702 5701 5700 5699 5698 5697 5696 5696 5695 5694 5693 5692 5691 5690 5688 5687 5685 5684 5682 5681 5680 5679 5678 5678 5678 5678 5678 5679 5680 5680 5682 5683 5685 5687 5688 5689 5690 5692 5693
5702 5701 5701 5700 5699 5698 5697 5696 5696 5695 5694 5693 5692 5691 5690 5689 5688 5687 5685 5684 5682 5681 5680 5678 5677 5677 5676 5675 5675 5675 5675 5676 5676 5677 5678 5680 5681 5682 5683 5685 5686 5687
5700 5699 5699 5698 5697 5697 5696 5695 5694 5693 5692 5691 5690 5689 5688 5687 5686 5685 5684 5683 5681 5679 5678 5677 5676 5675 5674 5673 5673 5672 5672 5672 5672 5673 5673 5675 5676 5677 5678 5679 5680 5681
5698 5697 5697 5696 5695 5695 5694 5693 5692 5692 5691 5690 5689 5688 5687 5686 5684 5683 5682 5681 5680 5678 5677 5675 5674 5673 5672 5672 5671 5670 5669 5669 5669 5669 5669 5669 5671 5672 5673 5674 5675 5676
5696 5695 5695 5694 5694 5693 5692 5691 5691 5690 5689 5688 5687 5686 5685 5684 5683 5682 5681 5679 5678 5677 5675 5674 5673 5671 5670 5669 5668 5667 5667 5666 5666 5666 5665 5665 5665 5666 5667 5668 5669 5670
5694 5693 5693 5692 5692 5691 5690 5690 5689 5688 5687 5686 5685 5684 5683 5682 5681 5680 5679 5678 5676 5675 5674 5673 5671 5670 5668 5667 5666 5665 5664 5663 5663 5662 5662 5662 5661 5661 5661 5662 5663 5664
5692 5691 5691 5690 5690 5689 5688 5688 5687 5686 5685 5684 5683 5682 5681 5680 5679 5678 5677 5676 5674 5673 5672 5671 5670 5668 5667 5665 5664 5663 5662 5661 5660 5659 5659 5658 5658 5657 5657 5657 5657 5658
5690 5689 5689 5688 5688 5687 5686 5686 5685 5684 5683 5682 5681 5680 5678 5677 5676 5675 5674 5673 5672 5671 5670 5669 5667 5666 5665 5663 5662 5661 5659 5658 5657 5656 5655 5654 5653 5653 5652 5652 5652 5652